Regional Weather Roundup
Issued by NWS Little Rock, AR

Home | Current Version | Previous Version | Graphics & Text | Print | Product List | Glossary On
Versions: 1 2 3 4 5 6 7 8 9 10 11 12 13 14 15 16 17 18 19 20 21 22 23 24 25 26 27 28 29 30 31 32 33 34 35 36 37 38 39 40 41 42 43 44 45 46 47 48 49 50
554
ASUS44 KLZK 241705
RWRLZK

WEATHER ROUNDUP FOR ARKANSAS
NATIONAL WEATHER SERVICE LITTLE ROCK AR
1200 PM CDT SUN JUL 24 2016

NOTE: "FAIR" INDICATES FEW OR NO CLOUDS BELOW 12,000 FEET WITH NO
SIGNIFICANT WEATHER AND/OR OBSTRUCTIONS TO VISIBILITY.

ARZ001-003-010-029-241800-
NORTHWEST ARKANSAS

CITY           SKY/WX    TMP DP  RH WIND       PRES   REMARKS
FAYETTEVILLE   SUNNY     89  75  63 VRB5      30.03F HX  99
FORT SMITH     SUNNY     93  72  50 VRB6      29.98F HX 101
HARRISON       SUNNY     91  74  57 W8G16     30.04S HX 100
BENTONVILLE    SUNNY     90  72  55 NW5       30.05S HX  96
ROGERS         SUNNY     91  75  59 W7        30.05S HX 101
SILOAM SPGS    SUNNY     91  70  49 W8        30.04F HX  97
HIGHFILL       SUNNY     91  76  61 SW10      30.03S HX 103
SPRINGDALE     SUNNY     91  73  55 W10       30.05F HX 100
$$

ARZ004-005-016-241800-
NORTH CENTRAL ARKANSAS

CITY           SKY/WX    TMP DP  RH WIND       PRES   REMARKS
BATESVILLE     MOSUNNY   90  75  62 SW8       29.99S HX 100
FLIPPIN        SUNNY     91  75  59 SE3       29.98S HX 102
MTN HOME       SUNNY     90  76  63 CALM      30.00F HX 101
$$

ARZ040-041-241800-
WEST CENTRAL ARKANSAS

CITY           SKY/WX    TMP DP  RH WIND       PRES   REMARKS
MENA           CLOUDY    90  77  66 CALM      30.03S HX 102
MOUNT IDA      CLOUDY    86  73  65 CALM      30.00S HX  93
$$

ARZ009-017-025-026-028-241800-
NORTHEAST ARKANSAS

CITY           SKY/WX    TMP DP  RH WIND       PRES   REMARKS
CORNING          N/A     86  77  74 S8        30.00S HX  97
JONESBORO      PTSUNNY   88  73  61 S7        29.98F HX  95
NEWPORT        MOSUNNY   90  73  57 S9        29.99F HX  98
WALNUT RIDGE   CLOUDY    84  73  70 S6        29.99S HX  91
BLYTHEVILLE    MOSUNNY   87  77  72 SW6       30.01S HX  99
$$

ARZ022-023-033-042-044-241800-
CENTRAL ARKANSAS

CITY           SKY/WX    TMP DP  RH WIND       PRES   REMARKS
LITTLE ROCK    CLOUDY    91  75  59 SW6       29.99F HX 101
N LITTLE ROCK    N/A     89  76  65 S3        29.96F HX 100
JACKSONVILLE   CLOUDY    91  76  61 VRB3      29.98F HX 101
SEARCY         CLOUDY    87  76  69 S5        30.00F HX  97
HOT SPRINGS    CLOUDY    87  72  60 W7        30.01S HX  93
RUSSELLVILLE   CLOUDY    87  74  64 W3        29.99S HX  95
$$

ARZ036-241800-
EAST ARKANSAS

CITY           SKY/WX    TMP DP  RH WIND       PRES   REMARKS
WEST MEMPHIS   CLOUDY    82  76  81 VRB6      30.00S HX  89
$$

ARZ050-053-066-070-073-241800-
SOUTHWEST ARKANSAS

CITY           SKY/WX    TMP DP  RH WIND       PRES   REMARKS
CAMDEN         SUNNY     91  73  55 SW3       29.99S HX 100
TEXARKANA      CLOUDY    89  77  67 VRB6      29.99F HX 101
EL DORADO      SUNNY     91  75  59 VRB3      30.00S HX 101
DE QUEEN       MOSUNNY   91  76  61 CALM      29.98S HX 103
$$

ARZ056-057-069-241800-
SOUTHEAST ARKANSAS

CITY           SKY/WX    TMP DP  RH WIND       PRES   REMARKS
PINE BLUFF     CLOUDY    86  75  69 CALM      30.00S HX  95
STUTTGART      CLOUDY    86  73  66 SE8       30.00S HX  93
MONTICELLO     SUNNY     92  76  59 CALM      30.00S HX 104

$$






USA.gov is the U.S. government's official web portal to all federal, state and local government web resources and services.